カタログに戻る

DELTA 1 DEB

運用中LEO
NORAD 3126·DEBRIS·🇺🇸 United States

打ち上げ Jan 11, 1968 から Vandenberg Space Force Base

Loading…

次のパス (今後24時間)

TLE

最新Source: Space-Track

元期: Sep 13, 2026, 11:22 UTC

1 03126U 68002C   26256.47429039 -.00000050  00000-0  89894-4 0  9995
2 03126 106.0708 243.4111 0321760  20.3977 129.3883 12.82475131745609

AllMySatでDELTA 1 DEBをリアルタイム追跡

Download on the App Store